Weather History for KMWO - September, 2013

Change the Weather History Date:

Monday, September 2, 2013

  Actual Average (KDAY) Record (KDAY)
Temperature  
Mean Temperature 76 °F 70 °F  
Max Temperature 85 °F 81 °F 99 °F (1953)
Min Temperature 67 °F 60 °F 40 °F (1909)
Degree Days  
Heating Degree Days 0 1  
Month to date heating degree days 2  
Since 1 July heating degree days 4  
Cooling Degree Days 11 6  
Month to date cooling degree days 12  
Year to date cooling degree days 794  
Growing Degree Days 26 (Base 50)    
Moisture  
Dew Point 63 °F    
Average Humidity 71    
Maximum Humidity 89    
Minimum Humidity 43    
Precipitation  
Precipitation 0.00 in 0.12 in 1.48 in (1993)
Month to date precipitation 0.23  
Year to date precipitation 28.54  
Snow  
Snow 0.00 in 0.00 in 0.00 in ()
Month to date snowfall 0.0  
Since 1 July snowfall 0.0  
Since 1 September snowfall 0.0  
Snow Depth -    
Sea Level Pressure  
Sea Level Pressure 29.85 in    
Wind  
Wind Speed 3 mph (NW)    
Max Wind Speed 12 mph    
Max Gust Speed 16 mph    
Visibility 7 miles    
Events      
T = Trace of Precipitation, MM = Missing Value Source: NWS Daily Summary

Daily Weather History Graph

Daily Weather History Graph

Search for Another Location

Airport or City:

Trip Planner

Search our weather history database for the weather conditions in past years. The results will help you decide how hot, cold, wet, or windy it might be!

Date:

Astronomy

Sep. 02, 2013 Rise Set
Actual Time 7:06 AM EDT 8:06 PM EDT
Civil Twilight 6:39 AM EDT 8:34 PM EDT
Nautical Twilight 6:06 AM EDT 9:06 PM EDT
Astronomical Twilight 5:32 AM EDT 9:40 PM EDT
Moon 4:23 AM EDT (9/2) 6:19 PM EDT (9/2)
Length of Visible Light 13h 54m
Length of Day
12h 59m
Waning Crescent, 8% of the Moon is Illuminated
Sep 2
Waning Crescent
Sep 5
New
Sep 12
First Quarter
Sep 19
Full
Sep 26
Last Quarter

Hourly Weather History & Observations

Time (EDT) Temp. Heat Index Dew Point Humidity Pressure Visibility Wind Dir Wind Speed Gust Speed Precip Events Conditions
12:15 AM 70.7 °F - 66.7 °F 87% 29.82 in 4.0 mi Calm Calm - N/A   Clear
12:35 AM 70.2 °F - 66.2 °F 87% 29.82 in 5.0 mi Calm Calm - N/A   Clear
12:55 AM 68.9 °F - 65.1 °F 88% 29.82 in 4.0 mi Calm Calm - N/A   Clear
1:15 AM 68.4 °F - 64.6 °F 88% 29.82 in 5.0 mi Calm Calm - N/A   Clear
1:35 AM 67.6 °F - 63.9 °F 88% 29.82 in 1.8 mi Calm Calm - N/A   Mist
1:55 AM 67.6 °F - 63.9 °F 88% 29.82 in 5.0 mi Calm Calm - N/A   Mostly Cloudy
2:15 AM 68.9 °F - 65.1 °F 88% 29.82 in 7.0 mi Calm Calm - N/A   Mostly Cloudy
2:35 AM 67.8 °F - 64.0 °F 88% 29.81 in 7.0 mi Calm Calm - N/A   Scattered Clouds
2:55 AM 67.6 °F - 63.9 °F 88% 29.80 in 4.0 mi Calm Calm - N/A   Clear
3:15 AM 68.4 °F - 64.6 °F 88% 29.82 in 3.0 mi NW 3.5 mph - N/A   Clear
3:35 AM 67.8 °F - 64.0 °F 88% 29.81 in 5.0 mi Calm Calm - N/A   Scattered Clouds
3:55 AM 69.8 °F - 66.2 °F 88% 29.79 in 5.0 mi South 4.6 mph - N/A   Clear
4:15 AM 67.6 °F - 63.9 °F 88% 29.81 in 3.0 mi NW 3.5 mph - N/A   Clear
4:35 AM 67.6 °F - 63.9 °F 88% 29.82 in 2.5 mi Calm Calm - N/A   Clear
4:55 AM 68.2 °F - 64.6 °F 88% 29.83 in 4.0 mi Calm Calm - N/A   Clear
5:15 AM 68.0 °F - 64.2 °F 88% 29.83 in 5.0 mi Calm Calm - N/A   Scattered Clouds
5:35 AM 68.5 °F - 64.8 °F 88% 29.83 in 5.0 mi Calm Calm - N/A   Mostly Cloudy
5:55 AM 68.7 °F - 64.8 °F 87% 29.83 in 5.0 mi Calm Calm - N/A   Mostly Cloudy
6:15 AM 67.6 °F - 63.9 °F 88% 29.84 in 2.5 mi Calm Calm - N/A   Scattered Clouds
6:35 AM 67.6 °F - 63.9 °F 88% 29.84 in 1.0 mi Calm Calm - N/A   Mist
6:55 AM 67.6 °F - 63.9 °F 88% 29.84 in 2.0 mi Calm Calm - N/A   Clear
7:15 AM 67.6 °F - 63.9 °F 88% 29.85 in 0.8 mi Calm Calm - N/A   Mist
7:35 AM 67.6 °F - 63.9 °F 88% 29.85 in 2.0 mi Calm Calm - N/A   Scattered Clouds
7:55 AM 68.2 °F - 64.8 °F 89% 29.85 in 3.0 mi South 3.5 mph - N/A   Scattered Clouds
8:15 AM 69.1 °F - 65.7 °F 89% 29.85 in 2.0 mi SW 3.5 mph - N/A   Overcast
8:35 AM 71.2 °F - 67.6 °F 88% 29.85 in 2.5 mi SW 6.9 mph - N/A   Overcast
8:55 AM 72.7 °F - 68.9 °F 88% 29.86 in 2.0 mi WSW 6.9 mph - N/A   Overcast
9:15 AM 72.7 °F - 68.9 °F 88% 29.86 in 1.8 mi SSW 4.6 mph - N/A   Overcast
9:35 AM 72.7 °F - 68.9 °F 88% 29.87 in 2.0 mi SW 8.1 mph - N/A   Overcast
9:55 AM 72.7 °F - 68.5 °F 87% 29.87 in 2.5 mi West 6.9 mph - N/A   Overcast
10:15 AM 72.7 °F - 68.0 °F 85% 29.88 in 3.0 mi WSW 6.9 mph - N/A   Haze
10:35 AM 72.9 °F - 67.5 °F 83% 29.88 in 4.0 mi West 6.9 mph - N/A   Haze
10:55 AM 75.2 °F - 68.0 °F 78% 29.88 in 5.0 mi WSW 6.9 mph - N/A   Haze
11:15 AM 77.9 °F - 68.7 °F 73% 29.87 in 7.0 mi West 3.5 mph - N/A   Mostly Cloudy
11:35 AM 77.9 °F - 68.2 °F 72% 29.88 in 7.0 mi NW 4.6 mph - N/A   Mostly Cloudy
11:55 AM 79.0 °F - 67.1 °F 67% 29.88 in 10.0 mi WSW 4.6 mph - N/A   Scattered Clouds
12:15 PM 79.0 °F - 66.6 °F 66% 29.88 in 10.0 mi West 8.1 mph - N/A   Mostly Cloudy
12:35 PM 80.2 °F 82.6 °F 67.1 °F 64% 29.88 in 10.0 mi NW 11.5 mph - N/A   Mostly Cloudy
12:55 PM 80.2 °F 82.3 °F 66.0 °F 62% 29.88 in 10.0 mi NW 9.2 mph - N/A   Mostly Cloudy
1:15 PM 79.5 °F - 66.0 °F 63% 29.88 in 7.0 mi NNW 6.9 mph 16.1 mph N/A   Mostly Cloudy
1:35 PM 80.1 °F 81.8 °F 64.8 °F 59% 29.89 in 7.0 mi NW 4.6 mph - N/A   Mostly Cloudy
1:55 PM 80.8 °F 82.5 °F 64.6 °F 58% 29.88 in 7.0 mi WNW 9.2 mph - N/A   Scattered Clouds
2:15 PM 81.9 °F 83.7 °F 65.1 °F 57% 29.88 in 10.0 mi NW 10.4 mph - N/A   Scattered Clouds
2:35 PM 81.3 °F 82.9 °F 64.2 °F 56% 29.87 in 10.0 mi NNW 9.2 mph - N/A   Scattered Clouds
2:55 PM 81.7 °F 82.9 °F 63.1 °F 53% 29.86 in 10.0 mi NW 8.1 mph 11.5 mph N/A   Scattered Clouds
3:15 PM 81.7 °F 82.9 °F 63.1 °F 53% 29.85 in 10.0 mi NW 8.1 mph - N/A   Scattered Clouds
3:35 PM 82.0 °F 83.0 °F 62.4 °F 51% 29.85 in 10.0 mi WNW 8.1 mph - N/A   Scattered Clouds
3:55 PM 81.9 °F 82.9 °F 62.4 °F 52% 29.85 in 10.0 mi NW 8.1 mph - N/A   Clear
4:15 PM 85.1 °F 86.1 °F 63.1 °F 48% 29.84 in 10.0 mi North 9.2 mph - N/A   Clear
4:35 PM 84.7 °F 85.2 °F 62.1 °F 46% 29.84 in 10.0 mi West 10.4 mph - N/A   Clear
4:55 PM 85.3 °F 85.9 °F 62.4 °F 46% 29.83 in 10.0 mi NW 11.5 mph - N/A   Clear
5:15 PM 85.3 °F 85.7 °F 61.9 °F 45% 29.83 in 10.0 mi West 8.1 mph - N/A   Clear
5:35 PM 85.3 °F 85.2 °F 60.3 °F 43% 29.83 in 10.0 mi WNW 9.2 mph - N/A   Clear
5:55 PM 84.4 °F 84.4 °F 60.3 °F 44% 29.83 in 10.0 mi NNW 9.2 mph - N/A   Mostly Cloudy
6:15 PM 81.1 °F 81.4 °F 58.6 °F 46% 29.83 in 10.0 mi NW 5.8 mph - N/A   Scattered Clouds
6:35 PM 81.5 °F 81.7 °F 58.8 °F 46% 29.83 in 10.0 mi NW 6.9 mph - N/A   Clear
6:55 PM 80.2 °F 80.9 °F 59.4 °F 49% 29.84 in 10.0 mi North 5.8 mph - N/A   Scattered Clouds
7:15 PM 79.0 °F - 58.8 °F 50% 29.85 in 10.0 mi NNW 9.2 mph - N/A   Scattered Clouds
7:35 PM 77.9 °F - 58.6 °F 51% 29.85 in 10.0 mi NNW 6.9 mph - N/A   Clear
7:55 PM 77.9 °F - 59.9 °F 54% 29.86 in 10.0 mi NNW 4.6 mph - N/A   Clear
8:15 PM 75.2 °F - 60.4 °F 60% 29.87 in 10.0 mi NNW 3.5 mph - N/A   Scattered Clouds
8:35 PM 72.7 °F - 59.0 °F 62% 29.88 in 10.0 mi NNW 5.8 mph - N/A   Scattered Clouds
8:55 PM 72.7 °F - 57.9 °F 60% 29.88 in 10.0 mi NNW 4.6 mph - N/A   Clear
9:15 PM 72.7 °F - 58.1 °F 60% 29.89 in 10.0 mi NNW 4.6 mph - N/A   Clear
9:35 PM 72.7 °F - 58.5 °F 61% 29.90 in 10.0 mi NNW 5.8 mph - N/A   Clear
9:55 PM 72.7 °F - 58.6 °F 61% 29.90 in 10.0 mi NNW 5.8 mph - N/A   Clear
10:15 PM 70.2 °F - 57.7 °F 65% 29.91 in 10.0 mi NNW 4.6 mph - N/A   Clear
10:35 PM 68.5 °F - 56.3 °F 65% 29.91 in 10.0 mi Calm Calm - N/A   Scattered Clouds
10:55 PM 67.6 °F - 55.6 °F 65% 29.92 in 10.0 mi North 8.1 mph - N/A   Clear
11:15 PM 67.6 °F - 55.4 °F 65% 29.92 in 10.0 mi North 6.9 mph - N/A   Clear
11:35 PM 67.6 °F - 55.8 °F 66% 29.92 in 10.0 mi North 6.9 mph - N/A   Clear
11:55 PM 67.6 °F - 56.7 °F 68% 29.92 in 10.0 mi North 5.8 mph - N/A   Clear